Location: Girdwood
(60.9430°N, 149.1660°W)
Time: 03:21:49
(UTC-09:00)

Amateur Radio Satellites - All Passes

Search period start: 26 February 2017 02:51
Search period end: 27 February 2017 02:51
Location: Girdwood, 60.9430°N, 149.1660°W

Satellite Date Start Highest point End Downlink Frequencies (MHz)
Time Altitude Azimuth
DUCHIFAT 1 26 Feb 02:56:09 02:59:35 24° 308° (NW) 03:03:00 145.980
BEESAT 26 Feb 02:56:16 03:01:00 57° 257° (WSW) 03:05:47 436.000
EO-79 26 Feb 03:08:13 03:11:15 19° 312° (NW) 03:14:17 145.935-145.965
MOZHAYETS 4 26 Feb 03:09:23 03:14:03 87° 71° (ENE) 03:18:45
ITAMSAT 1 26 Feb 03:10:01 03:13:58 21° 87° (E) 03:17:54 435.822/435.867
RS-15 26 Feb 03:12:56 03:24:35 51° 239° (WSW) 03:35:55 29.354- 29.394
NANOSAT C BR1 26 Feb 03:24:53 03:27:33 16° 315° (NW) 03:30:13 145.865
STRAND 1 26 Feb 03:25:42 03:26:06 10° 20° (NNE) 03:26:30 437.568
Gurwin Techsat 1B 26 Feb 03:25:54 03:31:16 79° 107° (ESE) 03:36:37 435.225
POLYITAN 1 26 Feb 03:26:18 03:28:52 16° 316° (NW) 03:31:27 437.675
PCSat 26 Feb 03:27:47 03:28:31 10° 259° (W) 03:29:15 145.827
QB50P2 26 Feb 03:29:27 03:31:49 15° 318° (NW) 03:34:11 145.880/145.840
KKS-1 26 Feb 03:34:06 03:38:27 56° 64° (ENE) 03:42:50 437.445
SO-50 26 Feb 03:37:51 03:42:23 54° 4° (N) 03:46:51 436.795
BUGSAT 1 26 Feb 03:49:49 03:52:56 20° 311° (NW) 03:56:04 437.445
STARS 26 Feb 04:05:39 04:09:56 55° 64° (ENE) 04:14:16 437.465
CUBESAT XI-V 26 Feb 04:11:10 04:15:47 70° 68° (ENE) 04:20:25 437.345
Oscar 19 26 Feb 04:13:43 04:18:29 39° 304° (NW) 04:23:13 437.125/150
M-CUBED/EXP-1 PRIME 26 Feb 04:15:20 04:18:35 66° 60° (ENE) 04:21:56 437.505
O/OREOS (USA 219) 26 Feb 04:20:51 04:24:19 21° 360° (N) 04:27:47 437.305
AO-85 26 Feb 04:23:16 04:23:59 10° 114° (ESE) 04:24:42 145.980
AO-7 26 Feb 04:23:24 04:31:25 47° 99° (E) 04:39:21 .
FO-29 26 Feb 04:25:02 04:30:05 19° 345° (NNW) 04:35:03 435.910
ITUPSAT 1 26 Feb 04:30:58 04:33:46 15° 277° (W) 04:36:34 437.325
BEESAT 26 Feb 04:37:29 04:39:52 14° 279° (W) 04:42:14 436.000
MOZHAYETS 4 26 Feb 04:48:17 04:51:51 21° 273° (W) 04:55:25
ITAMSAT 1 26 Feb 04:48:58 04:54:16 82° 109° (ESE) 04:59:31 435.822/435.867
STRAND 1 26 Feb 04:59:46 05:03:40 22° 44° (NE) 05:07:35 437.568
Gurwin Techsat 1B 26 Feb 05:06:13 05:10:53 31° 309° (NW) 05:15:31 435.225
KKS-1 26 Feb 05:11:20 05:15:18 31° 266° (W) 05:19:17 437.445
SO-50 26 Feb 05:18:36 05:23:12 85° 27° (NNE) 05:27:44 436.795
RS-15 26 Feb 05:26:20 05:33:56 20° 267° (W) 05:41:26 29.354- 29.394
STARS 26 Feb 05:42:38 05:46:33 31° 265° (W) 05:50:31 437.465
CUBESAT XI-V 26 Feb 05:49:41 05:53:37 26° 269° (W) 05:57:33 437.345
M-CUBED/EXP-1 PRIME 26 Feb 05:51:10 05:53:30 18° 261° (W) 05:55:53 437.505
Oscar 19 26 Feb 05:53:52 05:56:41 15° 326° (NNW) 05:59:29 437.125/150
AO-85 26 Feb 05:59:26 06:03:28 40° 135° (SE) 06:07:18 145.980
O/OREOS (USA 219) 26 Feb 06:01:05 06:05:05 28° 25° (NNE) 06:09:04 437.305
DOVE 4 26 Feb 06:02:08 06:05:33 20° 87° (E) 06:09:05 437.250
CUTE-I 26 Feb 06:04:18 06:08:05 19° 84° (E) 06:11:52 437.470
FO-29 26 Feb 06:07:45 06:12:34 18° 10° (N) 06:17:23 435.910
KAITUO 1B 26 Feb 06:14:43 06:17:05 16° 86° (E) 06:19:26 145.475/437.950
AO-7 26 Feb 06:16:26 06:24:44 71° 304° (NW) 06:32:58 .
XW-2F 26 Feb 06:20:51 06:23:43 20° 89° (E) 06:26:34 145.980 - 146.000
XW-2D 26 Feb 06:26:00 06:29:06 22° 90° (E) 06:32:09 145.860 - 145.880
ITAMSAT 1 26 Feb 06:28:49 06:33:22 30° 310° (NW) 06:37:52 435.822/435.867
XW-2B 26 Feb 06:31:01 06:34:12 24° 91° (E) 06:37:22 145.730 - 145.750
BEESAT 3 26 Feb 06:34:30 06:36:09 12° 116° (ESE) 06:37:46 437.485
PRISM 26 Feb 06:36:08 06:36:49 10° 36° (NE) 06:37:30 437.425
STRAND 1 26 Feb 06:37:01 06:42:09 69° 65° (ENE) 06:47:19 437.568
XW-2C 26 Feb 06:39:37 06:42:59 28° 93° (E) 06:46:20 145.795 - 145.815
Gurwin Techsat 1B 26 Feb 06:47:03 06:49:27 13° 332° (NNW) 06:51:52 435.225
NUDT-PHONESAT 26 Feb 06:47:51 06:51:10 28° 94° (E) 06:54:26 437.300
LilacSat-2 26 Feb 06:57:28 07:01:09 40° 98° (E) 07:04:47 437.200
SO-50 26 Feb 06:59:17 07:03:23 34° 230° (SW) 07:07:27 436.795
UNISAT 6 26 Feb 07:04:29 07:06:11 12° 34° (NE) 07:07:53 437.425
TIGRISAT 26 Feb 07:04:40 07:06:12 11° 33° (NNE) 07:07:44 435.000
BEESAT 2 26 Feb 07:14:42 07:16:39 13° 117° (ESE) 07:18:38 435.950
DOVE 4 26 Feb 07:39:16 07:43:52 87° 111° (ESE) 07:48:44 437.250
AO-85 26 Feb 07:39:32 07:43:46 72° 336° (NNW) 07:47:46 145.980
O/OREOS (USA 219) 26 Feb 07:40:35 07:45:11 74° 48° (NE) 07:49:46 437.305
CUTE-I 26 Feb 07:43:41 07:49:06 73° 106° (ESE) 07:54:30 437.470
XW-2A 26 Feb 07:44:08 07:47:02 24° 93° (E) 07:49:54 145.665 - 145.685
HO-68 26 Feb 07:44:17 07:50:30 30° 89° (E) 07:56:41 435.675
CUTE 1.7 + AOD 2 26 Feb 07:46:58 07:50:22 23° 89° (E) 07:53:44 437.475
KAITUO 1B 26 Feb 07:47:53 07:51:44 88° 108° (ESE) 07:55:30 145.475/437.950
FO-29 26 Feb 07:49:09 07:55:23 28° 35° (NE) 08:01:42 435.910
XW-2F 26 Feb 07:54:29 07:58:20 73° 290° (WNW) 08:02:08 145.980 - 146.000
XW-2D 26 Feb 07:59:50 08:03:41 64° 291° (WNW) 08:07:28 145.860 - 145.880
YUBILEINY 26 Feb 08:04:17 08:05:46 11° 51° (NE) 08:07:15 435.215
XW-2B 26 Feb 08:04:56 08:08:45 59° 292° (WNW) 08:12:31 145.730 - 145.750
PRISM 26 Feb 08:07:25 08:11:05 33° 58° (ENE) 08:14:45 437.425
BEESAT 3 26 Feb 08:09:05 08:12:54 47° 137° (SE) 08:16:46 437.485
ITAMSAT 1 26 Feb 08:09:11 08:11:27 13° 333° (NNW) 08:13:42 435.822/435.867
AO-7 26 Feb 08:09:17 08:16:31 35° 329° (NNW) 08:23:44 .
XW-2C 26 Feb 08:13:40 08:17:26 50° 294° (WNW) 08:21:09 145.795 - 145.815
CUBEBUG 2 26 Feb 08:16:13 08:20:10 25° 89° (E) 08:24:05 437.445
STRAND 1 26 Feb 08:17:13 08:21:46 31° 267° (W) 08:26:22 437.568
NUDT-PHONESAT 26 Feb 08:21:38 08:25:19 49° 294° (WNW) 08:28:57 437.300
AO-73 26 Feb 08:22:32 08:24:42 13° 80° (E) 08:26:51 145.935
AAUSAT CUBESAT 2 26 Feb 08:28:13 08:31:24 21° 89° (E) 08:34:35 437.432
Oscar 11 26 Feb 08:28:14 08:29:54 12° 80° (E) 08:31:35 .
LilacSat-2 26 Feb 08:31:52 08:35:26 36° 299° (WNW) 08:38:59 437.200
UNISAT 6 26 Feb 08:37:34 08:41:42 33° 56° (NE) 08:45:54 437.425
TIGRISAT 26 Feb 08:37:35 08:41:40 32° 55° (NE) 08:45:49 435.000
SEEDS 26 Feb 08:41:54 08:45:56 43° 98° (E) 08:49:54 437.485
BEESAT 2 26 Feb 08:49:45 08:53:38 50° 138° (SE) 08:57:34 435.950
UWE-3 26 Feb 08:51:12 08:55:24 31° 92° (E) 08:59:33 435.000/436.395/437.385
AIST 2D 26 Feb 08:57:39 08:58:14 10° 44° (NE) 08:58:48 435.315
ZACube-1 26 Feb 09:09:45 09:13:47 29° 92° (E) 09:17:45 437.345
DUCHIFAT 1 26 Feb 09:13:13 09:15:13 13° 40° (NE) 09:17:13 145.980
XW-2A 26 Feb 09:16:39 09:20:03 50° 293° (WNW) 09:23:25 145.665 - 145.685
DOVE 4 26 Feb 09:17:32 09:21:11 25° 308° (NW) 09:25:00 437.250
O/OREOS (USA 219) 26 Feb 09:20:22 09:24:16 28° 250° (WSW) 09:28:10 437.305
AO-85 26 Feb 09:20:33 09:24:33 48° 360° (N) 09:28:24 145.980
CUTE 1.7 + AOD 2 26 Feb 09:22:25 09:26:40 72° 291° (WNW) 09:30:52 437.475
KAITUO 1B 26 Feb 09:22:34 09:25:19 19° 308° (NW) 09:28:03 145.475/437.950
CUTE-I 26 Feb 09:24:04 09:28:52 34° 308° (NW) 09:33:40 437.470
EO-79 26 Feb 09:24:31 09:27:10 16° 45° (NE) 09:29:51 145.935-145.965
XW-2F 26 Feb 09:29:28 09:31:55 17° 311° (NW) 09:34:23 145.980 - 146.000
FO-29 26 Feb 09:31:44 09:39:08 60° 59° (ENE) 09:46:52 435.910
HO-68 26 Feb 09:31:57 09:39:10 90° 112° (ESE) 09:46:21 435.675
XW-2D 26 Feb 09:34:59 09:37:14 15° 312° (NW) 09:39:28 145.860 - 145.880
XW-2B 26 Feb 09:40:09 09:42:16 14° 313° (NW) 09:44:23 145.730 - 145.750
NANOSAT C BR1 26 Feb 09:40:18 09:43:17 19° 48° (NE) 09:46:18 145.865
POLYITAN 1 26 Feb 09:41:44 09:44:54 20° 49° (NE) 09:48:04 437.675
PRISM 26 Feb 09:42:20 09:46:17 48° 259° (WSW) 09:50:16 437.425
QB50P2 26 Feb 09:44:37 09:47:52 22° 50° (NE) 09:51:09 145.880/145.840
BEESAT 3 26 Feb 09:46:31 09:50:29 64° 339° (NNW) 09:54:30 437.485
Tancredo 1 26 Feb 09:47:27 09:48:15 11° 157° (SSE) 09:49:01 437.200
XW-2C 26 Feb 09:49:06 09:50:52 13° 315° (NW) 09:52:38 145.795 - 145.815
DELFI C3 26 Feb 09:50:43 09:53:42 20° 89° (E) 09:56:39 145.870
YUBILEINY 26 Feb 09:52:09 09:59:39 33° 78° (ENE) 10:07:08 435.215
CUBEBUG 2 26 Feb 09:52:30 09:57:18 78° 290° (WNW) 10:02:04 437.445
NUDT-PHONESAT 26 Feb 09:56:52 09:58:29 12° 315° (NW) 10:00:05 437.300
AO-73 26 Feb 09:57:24 10:01:57 58° 102° (ESE) 10:06:25 145.935
AO-7 26 Feb 10:00:58 10:07:18 25° 356° (N) 10:13:37 .
Oscar 11 26 Feb 10:02:44 10:07:03 56° 102° (ESE) 10:11:18 .
AAUSAT CUBESAT 2 26 Feb 10:03:13 10:07:22 75° 290° (WNW) 10:11:27 437.432
Gurwin Techsat 1B 26 Feb 10:03:39 10:05:10 11° 22° (NNE) 10:06:41 435.225
BUGSAT 1 26 Feb 10:05:05 10:07:19 14° 43° (NE) 10:09:35 437.445
LilacSat-2 26 Feb 10:08:19 10:08:46 10° 320° (NW) 10:09:13 437.200
TIGRISAT 26 Feb 10:13:35 10:18:08 63° 258° (WSW) 10:22:49 435.000
UNISAT 6 26 Feb 10:13:41 10:18:14 60° 258° (WSW) 10:22:54 437.425
SEEDS 26 Feb 10:17:44 10:21:38 38° 299° (WNW) 10:25:30 437.485
AIST 2D 26 Feb 10:27:15 10:30:38 41° 65° (ENE) 10:34:03 435.315
BEESAT 2 26 Feb 10:27:26 10:31:26 62° 341° (NNW) 10:35:29 435.950
UWE-3 26 Feb 10:27:32 10:32:11 61° 293° (WNW) 10:36:46 435.000/436.395/437.385
Oscar 19 26 Feb 10:45:23 10:48:49 18° 39° (NE) 10:52:14 437.125/150
ZACube-1 26 Feb 10:45:51 10:50:26 63° 293° (WNW) 10:54:55 437.345
DUCHIFAT 1 26 Feb 10:45:58 10:49:59 43° 62° (ENE) 10:54:03 145.980
XW-2A 26 Feb 10:50:55 10:52:07 11° 314° (NW) 10:53:18 145.665 - 145.685
EO-79 26 Feb 10:58:02 11:02:13 59° 66° (ENE) 11:06:28 145.935-145.965
CUTE 1.7 + AOD 2 26 Feb 10:58:59 11:01:54 18° 312° (NW) 11:04:48 437.475
ISS 26 Feb 10:59:04 11:01:10 16° 171° (S) 11:03:16 437.550
AO-85 26 Feb 11:01:20 11:05:22 71° 24° (NNE) 11:09:16 145.980
CUTE-I 26 Feb 11:04:53 11:07:36 14° 331° (NNW) 11:10:19 437.470
NANOSAT C BR1 26 Feb 11:14:11 11:18:25 74° 70° (ENE) 11:22:42 145.865
POLYITAN 1 26 Feb 11:15:53 11:20:09 80° 70° (ENE) 11:24:29 437.675
FO-29 26 Feb 11:16:56 11:24:18 55° 262° (W) 11:32:04 435.910
QB50P2 26 Feb 11:18:55 11:23:11 88° 77° (ENE) 11:27:31 145.880/145.840
HO-68 26 Feb 11:19:58 11:26:23 37° 317° (NW) 11:32:46 435.675
Tancredo 1 26 Feb 11:21:28 11:23:36 16° 177° (S) 11:25:43 437.200
BEESAT 3 26 Feb 11:24:40 11:28:34 47° 2° (N) 11:32:29 437.485
ITAMSAT 1 26 Feb 11:24:42 11:26:16 11° 22° (NNE) 11:27:50 435.822/435.867
DELFI C3 26 Feb 11:25:01 11:28:58 74° 291° (WNW) 11:32:53 145.870
CUBEBUG 2 26 Feb 11:29:41 11:33:19 22° 311° (NW) 11:36:57 437.445
AO-73 26 Feb 11:33:54 11:38:01 33° 303° (WNW) 11:42:05 145.935
BUGSAT 1 26 Feb 11:37:54 11:41:53 51° 64° (ENE) 11:45:57 437.445
Oscar 11 26 Feb 11:39:09 11:43:02 32° 303° (WNW) 11:46:52 .
Gurwin Techsat 1B 26 Feb 11:39:19 11:43:32 25° 45° (NE) 11:47:46 435.225
AAUSAT CUBESAT 2 26 Feb 11:39:26 11:42:15 18° 311° (NW) 11:45:05 437.432
LO-87 26 Feb 11:45:12 11:48:35 36° 98° (E) 11:51:57 145.935 - 145.965
YUBILEINY 26 Feb 11:46:44 11:55:35 89° 102° (ESE) 12:04:25 435.215
AO-7 26 Feb 11:51:03 11:57:56 30° 23° (NNE) 12:04:48 .
TIGRISAT 26 Feb 11:53:16 11:55:47 14° 279° (W) 11:58:22 435.000
UNISAT 6 26 Feb 11:53:35 11:55:57 14° 280° (W) 11:58:21 437.425
SEEDS 26 Feb 11:54:56 11:56:20 11° 321° (NW) 11:57:44 437.485
AIST 2D 26 Feb 12:00:48 12:04:00 30° 265° (W) 12:07:13 435.315
UWE-3 26 Feb 12:04:42 12:07:52 18° 315° (NW) 12:11:02 435.000/436.395/437.385
BEESAT 2 26 Feb 12:05:45 12:09:41 48° 3° (N) 12:13:39 435.950
50 SAT 26 Feb 12:10:15 12:10:56 10° 84° (E) 12:11:37 437.505
ESTCUBE 1 26 Feb 12:12:51 12:17:06 39° 97° (E) 12:21:18 437.505/2401.250
DX 1 26 Feb 12:21:11 12:22:57 12° 82° (E) 12:24:42 434.975-435.025
DUCHIFAT 1 26 Feb 12:21:49 12:25:45 38° 263° (W) 12:29:46 145.980
Oscar 19 26 Feb 12:22:14 12:27:14 53° 61° (ENE) 12:32:14 437.125/150
ZACube-1 26 Feb 12:22:52 12:25:59 18° 315° (NW) 12:29:04 437.345
UKube-1 26 Feb 12:31:00 12:32:19 11° 81° (E) 12:33:39 .
SPROUT 26 Feb 12:31:02 12:34:28 22° 89° (E) 12:37:53 437.525
VELOX 1 26 Feb 12:32:42 12:36:26 26° 92° (E) 12:40:08 145.980
EO-79 26 Feb 12:34:39 12:38:19 28° 267° (W) 12:42:02 145.935-145.965
ISS 26 Feb 12:34:47 12:36:47 15° 192° (SSW) 12:38:47 437.550
AO-85 26 Feb 12:41:54 12:45:36 38° 226° (SW) 12:49:14 145.980
NANOSAT C BR1 26 Feb 12:51:15 12:54:37 23° 270° (W) 12:58:01 145.865
POLYITAN 1 26 Feb 12:53:13 12:56:29 21° 271° (W) 12:59:47 437.675
QB50P2 26 Feb 12:56:31 12:59:36 19° 273° (W) 13:02:43 145.880/145.840
Tancredo 1 26 Feb 12:57:23 12:59:00 13° 197° (SSW) 13:00:38 437.200
ITAMSAT 1 26 Feb 12:59:59 13:04:11 25° 45° (NE) 13:08:24 435.822/435.867
DELFI C3 26 Feb 13:00:37 13:03:12 17° 311° (NW) 13:05:48 145.870
BEESAT 3 26 Feb 13:02:32 13:06:34 74° 25° (NNE) 13:10:36 437.485
FO-29 26 Feb 13:06:03 13:11:09 19° 287° (WNW) 13:16:27 435.910
HO-68 26 Feb 13:07:31 13:12:26 20° 342° (NNW) 13:17:20 435.675
AO-73 26 Feb 13:11:35 13:13:06 11° 325° (NW) 13:14:35 145.935
BUGSAT 1 26 Feb 13:13:48 13:17:28 31° 265° (W) 13:21:13 437.445
Oscar 11 26 Feb 13:17:11 13:18:02 10° 325° (NW) 13:18:53 .
Gurwin Techsat 1B 26 Feb 13:17:32 13:22:51 76° 67° (ENE) 13:28:13 435.225
LO-87 26 Feb 13:18:45 13:22:04 35° 298° (WNW) 13:25:22 145.935 - 145.965
AO-7 26 Feb 13:41:17 13:49:21 56° 49° (NE) 13:57:25 .
50 SAT 26 Feb 13:41:19 13:44:48 64° 105° (ESE) 13:48:15 437.505
BEESAT 2 26 Feb 13:43:46 13:47:51 78° 25° (NNE) 13:51:56 435.950
YUBILEINY 26 Feb 13:45:30 13:53:34 38° 310° (NW) 14:01:38 435.215
ESTCUBE 1 26 Feb 13:49:43 13:54:01 45° 298° (WNW) 13:58:17 437.505/2401.250
DX 1 26 Feb 13:55:47 14:00:06 57° 103° (ESE) 14:04:24 434.975-435.025
Oscar 19 26 Feb 14:01:54 14:06:45 40° 263° (W) 14:11:37 437.125/150
UKube-1 26 Feb 14:05:07 14:09:23 53° 102° (ESE) 14:13:37 .
SPROUT 26 Feb 14:06:33 14:10:53 76° 292° (WNW) 14:15:12 437.525
VELOX 1 26 Feb 14:08:54 14:13:18 68° 292° (WNW) 14:17:42 145.980
CUTE-I 26 Feb 14:22:00 14:23:32 11° 20° (NNE) 14:25:04 437.470
ITAMSAT 1 26 Feb 14:37:51 14:43:04 79° 67° (ENE) 14:48:21 435.822/435.867
BEESAT 3 26 Feb 14:40:18 14:44:02 37° 227° (SW) 14:47:45 437.485
ITUPSAT 1 26 Feb 14:40:51 14:44:08 18° 85° (E) 14:47:23 437.325
BEESAT 26 Feb 14:46:21 14:49:51 20° 87° (E) 14:53:20 436.000
HO-68 26 Feb 14:53:23 14:57:55 18° 8° (N) 15:02:26 435.675
MOZHAYETS 4 26 Feb 14:55:48 14:57:25 12° 79° (ENE) 14:59:02
Gurwin Techsat 1B 26 Feb 14:58:47 15:03:21 28° 269° (W) 15:07:58 435.225
50 SAT 26 Feb 15:14:56 15:17:39 22° 305° (NW) 15:20:22 437.505
BEESAT 2 26 Feb 15:21:43 15:25:27 35° 228° (SW) 15:29:09 435.950
ESTCUBE 1 26 Feb 15:27:32 15:29:54 14° 320° (NW) 15:32:17 437.505/2401.250
DX 1 26 Feb 15:32:16 15:36:09 32° 304° (NW) 15:40:02 434.975-435.025
AO-7 26 Feb 15:33:50 15:42:09 64° 253° (WSW) 15:50:29 .
XW-2F 26 Feb 15:40:13 15:41:21 11° 42° (NE) 15:42:29 145.980 - 146.000
UKube-1 26 Feb 15:41:24 15:45:19 34° 303° (WNW) 15:49:13 .
DOVE 4 26 Feb 15:42:23 15:44:45 15° 42° (NE) 15:47:10 437.250
SPROUT 26 Feb 15:43:08 15:46:14 20° 312° (NW) 15:49:20 437.525
RS-15 26 Feb 15:45:07 15:49:59 13° 85° (E) 15:54:52 29.354- 29.394
XW-2D 26 Feb 15:45:14 15:46:50 12° 44° (NE) 15:48:25 145.860 - 145.880
VELOX 1 26 Feb 15:46:04 15:49:07 19° 314° (NW) 15:52:11 145.980
YUBILEINY 26 Feb 15:47:25 15:53:35 20° 341° (NNW) 15:59:46 435.215
XW-2B 26 Feb 15:50:05 15:51:52 13° 45° (NE) 15:53:39 145.730 - 145.750
CUTE-I 26 Feb 15:57:46 16:01:57 24° 44° (NE) 16:06:10 437.470
XW-2C 26 Feb 15:58:20 16:00:29 14° 47° (NE) 16:02:37 145.795 - 145.815
NUDT-PHONESAT 26 Feb 16:05:03 16:07:02 14° 46° (NE) 16:09:01 437.300
LilacSat-2 26 Feb 16:15:59 16:18:45 19° 51° (NE) 16:21:31 437.200
ITUPSAT 1 26 Feb 16:17:56 16:22:47 76° 106° (ESE) 16:27:35 437.325
ITAMSAT 1 26 Feb 16:18:42 16:23:07 27° 269° (W) 16:27:34 435.822/435.867
BEESAT 26 Feb 16:23:32 16:28:23 83° 108° (ESE) 16:33:11 436.000
MOZHAYETS 4 26 Feb 16:31:10 16:35:42 51° 100° (E) 16:40:12
PCSat 26 Feb 16:33:29 16:37:41 23° 114° (ESE) 16:41:53 145.827
HO-68 26 Feb 16:37:49 16:43:40 28° 34° (NE) 16:49:31 435.675
KKS-1 26 Feb 16:51:17 16:55:10 27° 93° (E) 16:59:00 437.445
XW-2A 26 Feb 16:55:44 16:56:08 10° 44° (NE) 16:56:31 145.665 - 145.685
KAITUO 1B 26 Feb 17:03:54 17:07:20 32° 60° (ENE) 17:10:47 145.475/437.950
DX 1 26 Feb 17:10:04 17:11:14 11° 326° (NW) 17:12:24 434.975-435.025
XW-2F 26 Feb 17:11:00 17:14:37 40° 64° (ENE) 17:18:17 145.980 - 146.000
CUTE 1.7 + AOD 2 26 Feb 17:15:27 17:17:58 15° 45° (NE) 17:20:29 437.475
XW-2D 26 Feb 17:16:30 17:20:14 46° 64° (ENE) 17:23:57 145.860 - 145.880
DOVE 4 26 Feb 17:17:33 17:21:37 52° 65° (ENE) 17:25:51 437.250
UKube-1 26 Feb 17:18:57 17:20:17 11° 325° (NW) 17:21:36 .
STARS 26 Feb 17:21:05 17:24:51 26° 92° (E) 17:28:36 437.465
XW-2B 26 Feb 17:21:33 17:25:18 50° 66° (ENE) 17:29:04 145.730 - 145.750
XW-2C 26 Feb 17:30:11 17:34:00 59° 68° (ENE) 17:37:50 145.795 - 145.815
AO-7 26 Feb 17:30:31 17:36:43 22° 278° (W) 17:42:56 .
CUBESAT XI-V 26 Feb 17:34:37 17:39:01 42° 98° (E) 17:43:24 437.345
CUTE-I 26 Feb 17:36:00 17:41:20 73° 66° (ENE) 17:46:43 437.470
NUDT-PHONESAT 26 Feb 17:36:34 17:40:17 57° 67° (ENE) 17:44:02 437.300
RS-15 26 Feb 17:47:46 17:58:35 41° 113° (ESE) 18:09:36 29.354- 29.394
LilacSat-2 26 Feb 17:48:39 17:52:33 85° 72° (ENE) 17:56:29 437.200
YUBILEINY 26 Feb 17:48:41 17:54:41 19° 15° (NNE) 18:00:39 435.215
CUBEBUG 2 26 Feb 17:49:15 17:52:22 18° 44° (NE) 17:55:31 437.445
AO-73 26 Feb 17:54:16 17:55:48 12° 35° (NE) 17:57:20 145.935
AAUSAT CUBESAT 2 26 Feb 17:54:43 17:56:53 14° 44° (NE) 17:59:03 437.432
ITUPSAT 1 26 Feb 17:56:09 18:00:18 29° 308° (NW) 18:04:25 437.325
Oscar 11 26 Feb 17:59:37 18:00:31 11° 35° (NE) 18:01:26 .
BEESAT 26 Feb 18:01:46 18:05:46 27° 310° (NW) 18:09:46 436.000
SEEDS 26 Feb 18:08:31 18:11:56 24° 53° (NE) 18:15:19 437.485
MOZHAYETS 4 26 Feb 18:08:33 18:12:49 37° 302° (WNW) 18:17:03
PCSat 26 Feb 18:14:57 18:20:22 73° 136° (SE) 18:25:49 145.827
UWE-3 26 Feb 18:22:50 18:26:17 21° 48° (NE) 18:29:45 435.000/436.395/437.385
HO-68 26 Feb 18:23:20 18:30:24 64° 58° (ENE) 18:37:28 435.675
XW-2A 26 Feb 18:24:50 18:28:06 42° 65° (ENE) 18:31:25 145.665 - 145.685
KKS-1 26 Feb 18:27:39 18:32:06 65° 294° (WNW) 18:36:32 437.445
KAITUO 1B 26 Feb 18:37:38 18:41:19 44° 261° (W) 18:45:01 145.475/437.950
STRAND 1 26 Feb 18:38:53 18:40:39 12° 77° (ENE) 18:42:25 437.568
ZACube-1 26 Feb 18:40:25 18:43:43 20° 47° (NE) 18:47:03 437.345
XW-2F 26 Feb 18:45:19 18:48:52 35° 264° (W) 18:52:27 145.980 - 146.000
NO-84 26 Feb 18:46:53 18:49:21 19° 151° (SSE) 18:52:01 435.350 FM
CUTE 1.7 + AOD 2 26 Feb 18:48:52 18:53:03 56° 66° (ENE) 18:57:15 437.475
XW-2D 26 Feb 18:51:09 18:54:35 30° 265° (W) 18:58:05 145.860 - 145.880
M-CUBED/EXP-1 PRIME 26 Feb 18:52:09 18:55:42 48° 110° (ESE) 18:59:30 437.505
DOVE 4 26 Feb 18:55:56 18:59:37 30° 267° (W) 19:03:27 437.250
XW-2B 26 Feb 18:56:20 18:59:44 28° 266° (W) 19:03:08 145.730 - 145.750
STARS 26 Feb 18:57:11 19:01:36 67° 293° (WNW) 19:06:01 437.465
XW-2C 26 Feb 19:05:19 19:08:32 24° 268° (W) 19:11:45 145.795 - 145.815
NUDT-PHONESAT 26 Feb 19:11:23 19:14:31 24° 268° (W) 19:17:41 437.300
CUBESAT XI-V 26 Feb 19:12:06 19:16:29 44° 299° (WNW) 19:20:50 437.345
DELFI C3 26 Feb 19:13:35 19:15:14 12° 43° (NE) 19:16:53 145.870
CUTE-I 26 Feb 19:17:12 19:21:53 30° 268° (W) 19:26:38 437.470
CUBEBUG 2 26 Feb 19:23:41 19:28:11 60° 67° (ENE) 19:32:51 437.445
LilacSat-2 26 Feb 19:24:43 19:27:24 18° 273° (W) 19:30:05 437.200
AO-73 26 Feb 19:26:47 19:30:52 33° 57° (ENE) 19:35:00 145.935
AAUSAT CUBESAT 2 26 Feb 19:27:33 19:31:34 50° 65° (ENE) 19:35:36 437.432
Oscar 11 26 Feb 19:31:39 19:35:32 32° 57° (ENE) 19:39:25 .
ITUPSAT 1 26 Feb 19:35:21 19:36:50 11° 331° (NNW) 19:38:18 437.325
BEESAT 26 Feb 19:41:10 19:42:11 11° 333° (NNW) 19:43:13 436.000
SEEDS 26 Feb 19:43:01 19:47:16 78° 254° (WSW) 19:51:31 437.485
MOZHAYETS 4 26 Feb 19:46:53 19:48:53 13° 324° (NW) 19:50:53
YUBILEINY 26 Feb 19:47:02 19:54:54 35° 46° (NE) 20:02:42 435.215
UWE-3 26 Feb 19:57:33 20:02:07 76° 69° (ENE) 20:06:49 435.000/436.395/437.385
RS-15 26 Feb 19:57:35 20:09:48 81° 141° (SE) 20:22:11 29.354- 29.394
XW-2A 26 Feb 19:58:04 20:01:03 27° 265° (W) 20:04:04 145.665 - 145.685
PCSat 26 Feb 19:58:43 20:04:04 54° 340° (NNW) 20:09:26 145.827
KKS-1 26 Feb 20:04:55 20:07:59 18° 315° (NW) 20:11:03 437.445
HO-68 26 Feb 20:11:36 20:18:28 47° 261° (W) 20:25:24 435.675
ZACube-1 26 Feb 20:14:49 20:19:21 72° 68° (ENE) 20:23:58 437.345
STRAND 1 26 Feb 20:16:09 20:21:11 47° 99° (E) 20:26:09 437.568
NO-84 26 Feb 20:23:03 20:26:17 32° 172° (S) 20:29:49 435.350 FM
CUTE 1.7 + AOD 2 26 Feb 20:25:24 20:29:10 29° 267° (W) 20:32:57 437.475
M-CUBED/EXP-1 PRIME 26 Feb 20:26:54 20:30:08 32° 309° (NW) 20:33:35 437.505
STARS 26 Feb 20:34:13 20:37:18 19° 315° (NW) 20:40:23 437.465
DELFI C3 26 Feb 20:45:25 20:49:12 45° 65° (ENE) 20:53:00 145.870
CUBESAT XI-V 26 Feb 20:50:30 20:52:54 14° 321° (NW) 20:55:17 437.345
LO-87 26 Feb 20:59:15 21:01:23 15° 50° (NE) 21:03:31 145.935 - 145.965
CUBEBUG 2 26 Feb 21:01:05 21:05:09 31° 268° (W) 21:09:20 437.445
AO-73 26 Feb 21:02:28 21:06:57 58° 258° (WSW) 21:11:31 145.935
AAUSAT CUBESAT 2 26 Feb 21:03:32 21:07:15 31° 266° (W) 21:10:59 437.432
Oscar 11 26 Feb 21:07:13 21:11:31 57° 258° (WSW) 21:15:51 .
PRISM 26 Feb 21:14:30 21:16:25 13° 84° (E) 21:18:20 437.425
SEEDS 26 Feb 21:21:03 21:23:41 16° 275° (W) 21:26:19 437.485
UWE-3 26 Feb 21:35:20 21:39:05 24° 271° (W) 21:42:55 435.000/436.395/437.385
PCSat 26 Feb 21:43:05 21:48:20 45° 5° (N) 21:53:34 145.827
YUBILEINY 26 Feb 21:44:18 21:53:08 83° 74° (ENE) 22:01:53 435.215
ESTCUBE 1 26 Feb 21:46:13 21:50:04 28° 54° (NE) 21:53:54 437.505/2401.250
ZACube-1 26 Feb 21:52:18 21:56:06 26° 270° (W) 21:59:57 437.345
DX 1 26 Feb 21:52:26 21:54:07 12° 36° (NE) 21:55:48 434.975-435.025
TIGRISAT 26 Feb 21:55:21 21:58:29 17° 84° (E) 22:01:35 435.000
STRAND 1 26 Feb 21:55:29 22:00:26 46° 301° (WNW) 22:05:21 437.568
UNISAT 6 26 Feb 21:55:32 21:58:48 18° 85° (E) 22:02:02 437.425
NO-84 26 Feb 22:00:06 22:03:25 30° 193° (SSW) 22:07:00 435.350 FM
SPROUT 26 Feb 22:00:07 22:02:45 16° 44° (NE) 22:05:23 437.525
UKube-1 26 Feb 22:01:19 22:02:42 11° 35° (NE) 22:04:05 .
M-CUBED/EXP-1 PRIME 26 Feb 22:02:56 22:03:49 11° 329° (NNW) 22:04:42 437.505
HO-68 26 Feb 22:04:35 22:08:12 14° 286° (WNW) 22:11:49 435.675
VELOX 1 26 Feb 22:04:42 22:07:54 20° 47° (NE) 22:11:06 145.980
RS-15 26 Feb 22:10:33 22:22:57 76° 352° (N) 22:35:21 29.354- 29.394
FO-29 26 Feb 22:15:31 22:21:42 25° 79° (E) 22:27:33 435.910
DELFI C3 26 Feb 22:20:36 22:24:10 32° 265° (W) 22:27:45 145.870
LO-87 26 Feb 22:30:45 22:34:18 74° 71° (ENE) 22:37:53 145.935 - 145.965
AO-73 26 Feb 22:42:04 22:44:12 13° 280° (W) 22:46:21 145.935
Oscar 11 26 Feb 22:46:54 22:48:38 12° 280° (W) 22:50:24 .
PRISM 26 Feb 22:48:27 22:52:32 65° 105° (ESE) 22:56:35 437.425
50 SAT 26 Feb 22:52:33 22:55:21 23° 56° (NE) 22:58:09 437.505
SO-50 26 Feb 23:02:28 23:06:17 26° 125° (SE) 23:10:03 436.795
AIST 2D 26 Feb 23:16:26 23:18:24 14° 85° (E) 23:20:23 435.315
ESTCUBE 1 26 Feb 23:22:04 23:26:34 72° 255° (WSW) 23:31:06 437.505/2401.250
DX 1 26 Feb 23:25:18 23:29:17 37° 58° (ENE) 23:33:18 434.975-435.025
PCSat 26 Feb 23:26:58 23:32:26 70° 30° (NNE) 23:37:53 145.827
TIGRISAT 26 Feb 23:31:15 23:35:59 74° 104° (ESE) 23:40:42 435.000
UNISAT 6 26 Feb 23:31:31 23:36:17 78° 106° (ESE) 23:40:59 437.425
SPROUT 26 Feb 23:33:44 23:37:56 58° 66° (ENE) 23:42:10 437.525
UKube-1 26 Feb 23:33:46 23:37:40 34° 57° (ENE) 23:41:36 .
STRAND 1 26 Feb 23:35:23 23:38:36 17° 323° (NW) 23:41:49 437.568
NO-84 26 Feb 23:37:56 23:40:21 16° 213° (SSW) 23:42:53 435.350 FM
VELOX 1 26 Feb 23:39:23 23:43:47 76° 68° (ENE) 23:48:12 145.980
YUBILEINY 26 Feb 23:41:32 23:49:16 37° 280° (W) 23:56:56 435.215
O/OREOS (USA 219) 26 Feb 23:41:59 23:46:15 44° 116° (ESE) 23:50:34 437.305
DUCHIFAT 1 26 Feb 23:55:33 23:58:45 20° 88° (E) 00:01:56 145.980
FO-29 27 Feb 00:00:15 00:08:08 72° 104° (ESE) 00:15:24 435.910
LO-87 27 Feb 00:05:46 00:08:13 18° 271° (W) 00:10:42 145.935 - 145.965
EO-79 27 Feb 00:08:18 00:12:01 28° 93° (E) 00:15:43 145.935-145.965
ITUPSAT 1 27 Feb 00:21:17 00:24:37 19° 42° (NE) 00:27:56 437.325
NANOSAT C BR1 27 Feb 00:24:00 00:27:56 34° 95° (E) 00:31:50 145.865
RS-15 27 Feb 00:24:04 00:36:35 84° 24° (NNE) 00:48:51 29.354- 29.394
PRISM 27 Feb 00:24:09 00:27:35 27° 306° (NW) 00:31:01 437.425
50 SAT 27 Feb 00:24:46 00:28:14 60° 257° (WSW) 00:31:42 437.505
POLYITAN 1 27 Feb 00:26:17 00:30:20 37° 97° (E) 00:34:20 437.675
BEESAT 27 Feb 00:26:25 00:29:51 20° 44° (NE) 00:33:18 436.000
QB50P2 27 Feb 00:29:19 00:33:26 41° 98° (E) 00:37:31 145.880/145.840
MOZHAYETS 4 27 Feb 00:32:37 00:34:26 12° 35° (NE) 00:36:16
SO-50 27 Feb 00:41:38 00:46:16 78° 148° (SSE) 00:50:51 436.795
BUGSAT 1 27 Feb 00:44:51 00:48:15 23° 90° (E) 00:51:38 437.445
AIST 2D 27 Feb 00:48:38 00:52:15 86° 105° (ESE) 00:55:49 435.315
DX 1 27 Feb 01:01:15 01:05:26 47° 259° (W) 01:09:40 434.975-435.025
ESTCUBE 1 27 Feb 01:01:27 01:04:13 16° 276° (W) 01:06:58 437.505/2401.250
TIGRISAT 27 Feb 01:08:19 01:12:21 29° 307° (NW) 01:16:23 435.000
UNISAT 6 27 Feb 01:08:39 01:12:38 28° 307° (NW) 01:16:36 437.425
UKube-1 27 Feb 01:09:25 01:13:37 51° 258° (WSW) 01:17:52 .
SPROUT 27 Feb 01:10:26 01:14:09 29° 267° (W) 01:17:55 437.525
PCSat 27 Feb 01:10:33 01:15:45 47° 233° (SW) 01:20:55 145.827
VELOX 1 27 Feb 01:17:14 01:20:44 23° 270° (W) 01:24:16 145.980
O/OREOS (USA 219) 27 Feb 01:21:16 01:25:41 51° 319° (NW) 01:30:08 437.305
Gurwin Techsat 1B 27 Feb 01:24:16 01:27:15 15° 80° (E) 01:30:15 435.225
DUCHIFAT 1 27 Feb 01:30:41 01:35:00 84° 289° (WNW) 01:39:17 145.980
CUBESAT XI-V 27 Feb 01:38:02 01:39:06 11° 32° (NNE) 01:40:10 437.345
YUBILEINY 27 Feb 01:40:28 01:43:21 12° 307° (NW) 01:46:15 435.215
EO-79 27 Feb 01:43:52 01:48:07 60° 294° (WNW) 01:52:20 145.935-145.965
FO-29 27 Feb 01:45:29 01:52:53 47° 308° (NW) 01:59:50 435.910
ITUPSAT 1 27 Feb 01:56:56 02:01:41 60° 64° (ENE) 02:06:27 437.325
NANOSAT C BR1 27 Feb 01:59:41 02:03:50 49° 296° (WNW) 02:07:58 145.865
POLYITAN 1 27 Feb 02:02:07 02:06:15 45° 298° (WNW) 02:10:21 437.675
BEESAT 27 Feb 02:02:11 02:06:56 65° 66° (ENE) 02:11:43 436.000
Oscar 19 27 Feb 02:02:27 02:07:11 36° 95° (E) 02:11:54 437.125/150
QB50P2 27 Feb 02:05:13 02:09:17 41° 299° (WNW) 02:13:19 145.880/145.840
MOZHAYETS 4 27 Feb 02:06:15 02:10:28 35° 57° (ENE) 02:14:42
BUGSAT 1 27 Feb 02:19:49 02:24:04 74° 291° (WNW) 02:28:20 437.445
SO-50 27 Feb 02:22:25 02:26:59 57° 350° (N) 02:31:29 436.795
AIST 2D 27 Feb 02:22:33 02:25:03 18° 307° (NW) 02:27:34 435.315
KKS-1 27 Feb 02:23:50 02:27:13 22° 48° (NE) 02:30:37 437.445
M-CUBED/EXP-1 PRIME 27 Feb 02:41:04 02:42:59 15° 37° (NE) 02:44:55 437.505
ITAMSAT 1 27 Feb 02:41:27 02:44:08 14° 80° (E) 02:46:46 435.822/435.867
DX 1 27 Feb 02:42:40 02:42:44 10° 281° (W) 02:42:48 434.975-435.025
TIGRISAT 27 Feb 02:46:43 02:47:45 11° 329° (NNW) 02:48:47 435.000
UNISAT 6 27 Feb 02:47:17 02:48:01 10° 330° (NNW) 02:48:44 437.425
